Regional Weather Roundup
Issued by NWS New Orleans/Baton Rouge, LA

Home | Current Version | Previous Version | Graphics & Text | Print | Product List | Glossary On
Versions: 1 2 3 4 5 6 7 8 9 10 11 12 13 14 15 16 17 18 19 20 21 22 23 24 25 26 27 28 29 30 31 32 33 34 35 36 37 38 39 40 41 42 43 44 45 46 47 48 49 50
091
ASUS44 KLIX 312211
RWRLIX
NEW ORLEANS REGIONAL WEATHER ROUNDUP
NATIONAL WEATHER SERVICE NEW ORLEANS LA
500 PM CDT TUE MAR 31 2015

NOTE: "FAIR" INDICATES FEW OR NO CLOUDS BELOW 12,000 FEET WITH NO
      SIGNIFICANT WEATHER AND/OR OBSTRUCTIONS TO VISIBILITY.
      SKY/WX - SKY CONDITION AND SIGNIFICANT WEATHER.
      TMP - AIR TEMPERATURE.     DP    - DEWPOINT TEMPERATURE.
      RH  - RELATIVE HUMIDITY.   PRES  - PRESSURE.
      HI  - HEAT INDEX.          WCI   - WIND CHILL INDEX.

*  THESE STATIONS ARE NOT NWS OR FAA STATIONS AND ARE NOT UNDER
   NWS QUALITY CONTROL.

LAZ038-040-048-061>063-065>067-069-312300-
SOUTHEAST LOUISIANA

CITY           SKY/WX    TMP DP  RH WIND       PRES   REMARKS
N.O. AUDUBON     N/A     81  68  65 MISG        N/A
N.O. INTL ARPT PTSUNNY   79  59  50 W15       30.01F
N.O. LAKEFRONT PTSUNNY   79  62  56 W15       30.01F
SLIDELL        MOSUNNY   81  61  50 W9        29.99F
BATON ROUGE    PTSUNNY   80  61  52 SW15G21   30.00F
BOOTHVILLE     MOSUNNY   77  67  71 SW14      30.06F
BELLE CHASSE   PTSUNNY   78  62  57 SW14      30.01F
BOGALUSA*        N/A     83  57  40 SW10      30.00F
GALLIANO*      PTCLDY    80  65  61 SW14G26   30.05F
NEW ROADS*     MOCLDY    81  59  47 S9        30.00F
GONZALES*        N/A     80  61  52 SW9G16    30.01F
HAMMOND*       MOSUNNY   82  55  39 SW14      30.01F
HOUMA*         PTSUNNY   79  64  61 SW16      30.04F
PORT FOURCHON* CLEAR     77  66  69 W14       30.09F

$$

MSZ070-080>082-312300-
SOUTHERN MISSISSIPPI

CITY           SKY/WX    TMP DP  RH WIND       PRES   REMARKS
MCCOMB         MOSUNNY   79  58  48 SW13G20   29.98F
GULFPORT       MOSUNNY   77  66  68 S9        30.00F
BILOXI         SUNNY     76  67  72 S13       30.00F
PASCAGOULA     SUNNY     76  64  66 S10       30.02F
STENNIS ARPT*  MOSUNNY   82  55  39 MISG      30.00F

$$

COASTAL OBSERVATIONS
LAKE AND NEARSHORE STATIONS

STATION/POSITION TIME  TEMP    WIND        PRES    WAVE
                       AIR SEA DIR/SP/G            HT/PER
                 (UTC) (F)     (DEG/KT/KT) (MB)    (FT/S)
PASCAGOULA       2100   75     190/ 11/ 13 1017.0
WAVELAND YACHT   2100   78 69  200/  7/ 13 1016.8
GRAND ISLE       2100   77 71  240/ 11/ 15 1018.0
SOUTHWEST PASS   2100   76 56  250/  6/  6 1019.0
NEW CANAL        2100   80     250/  9/ 13 1017.3
SHELL BEACH      2100   78 72  210/ 16/ 20 1017.1

OFFSHORE STATIONS

STATION/POSITION TIME  TEMP    WIND        PRES    WAVE
                       AIR SEA DIR/SP/G            HT/PER
                 (UTC) (F)     (DEG/KT/KT) (MB)    (FT/S)
64 S DAUPHIN ISL 2150   74 73  230/ 10/ 10 1018.2    2/ 7

$$




USA.gov is the U.S. government's official web portal to all federal, state and local government web resources and services.